Wind_Speed
19 19 18 18 18 18 16 14 13 13 12 11 10 9 9 8 7 6 5 4 4 4 4 5 6 7 9 10 11 13 14 15 16 17 18 18 18 17 17 17 16 15 14 13
18 18 18 19 18 17 15 14 13 12 12 11 10 10 9 8 7 6 5 5 4 4 4 4 5 7 8 10 11 12 14 15 16 17 18 18 18 18 17 17 17 16 14 13
16 17 18 18 17 16 15 15 14 13 11 10 10 10 9 8 7 7 6 5 5 4 4 4 5 6 8 9 11 12 14 15 16 17 18 18 19 18 18 18 17 16 14 12
17 17 17 17 16 15 15 14 13 12 11 9 9 9 9 8 7 7 6 6 5 4 4 4 4 6 7 9 10 12 14 15 16 17 18 19 19 19 19 19 18 16 14 12
15 16 16 16 16 15 14 13 12 10 10 9 9 9 8 8 7 7 7 6 5 4 4 3 4 5 7 8 10 11 13 15 17 18 18 19 19 20 20 19 18 17 14 12
15 16 16 16 15 14 13 12 10 9 9 9 9 9 9 8 8 8 7 7 5 5 4 4 4 5 6 8 9 11 13 15 17 18 18 19 20 20 20 19 19 17 15 13
14 15 15 14 13 13 12 11 9 9 9 10 9 8 8 9 9 8 8 7 6 5 5 4 4 5 6 8 9 11 13 15 16 17 18 19 20 20 20 19 19 18 16 14
13 13 13 13 12 11 11 10 9 9 9 9 9 9 9 9 9 9 9 8 7 6 5 4 4 5 6 8 9 11 12 14 16 17 18 19 20 20 20 19 19 18 17 15
12 12 12 12 11 11 10 10 9 9 8 8 9 9 9 9 10 10 10 9 8 7 6 5 5 5 6 8 9 10 12 13 15 16 18 18 19 20 20 19 18 18 18 16
10 10 10 10 10 10 9 8 8 8 8 8 9 9 10 10 10 11 11 10 9 8 7 6 6 6 6 7 8 10 11 13 14 16 17 18 19 19 19 19 19 19 18 17
8 8 8 8 9 9 9 9 8 8 8 8 9 10 11 11 11 11 11 11 10 9 8 7 6 6 6 7 8 9 10 12 13 15 16 17 18 19 19 19 19 18 18 17
7 7 7 7 8 9 9 9 8 9 9 9 9 10 11 11 11 11 11 11 10 9 8 7 7 6 7 7 8 9 10 11 12 14 15 16 17 18 19 19 19 18 17 17
5 6 7 7 8 8 9 9 9 9 10 10 10 10 11 12 12 12 12 12 11 10 9 8 8 7 7 7 8 8 9 10 12 13 14 15 16 17 18 19 18 18 17 16
4 6 7 8 9 9 9 10 10 10 10 10 10 10 11 12 13 13 13 13 12 11 10 9 8 8 7 7 8 8 9 10 11 12 14 15 16 17 18 18 18 18 17 16
5 6 8 9 9 10 10 11 11 11 11 11 11 11 12 13 14 14 14 14 13 12 11 10 9 9 9 8 8 8 9 10 11 12 13 14 15 16 17 18 18 17 17 16
7 8 9 10 11 11 11 12 13 13 13 13 13 12 13 14 14 14 15 14 14 13 12 12 11 10 10 9 9 9 9 10 11 12 13 14 15 15 16 17 17 17 16 16
9 10 11 12 13 13 13 14 14 15 15 15 14 13 14 15 15 15 15 15 15 14 13 13 12 11 11 11 10 10 10 10 11 12 12 13 14 15 16 16 16 16 16 16
11 12 13 14 15 16 15 15 16 16 16 16 15 15 15 15 15 15 16 16 15 15 15 14 13 13 12 12 12 11 11 11 12 12 13 13 14 15 15 16 16 16 16 15
14 14 15 16 16 16 16 16 16 17 17 17 17 16 16 16 16 16 16 16 16 16 16 15 15 15 14 13 13 13 13 13 13 13 13 14 14 15 15 15 15 15 15 15
16 17 17 17 18 17 16 16 17 18 18 18 18 17 17 17 17 17 17 17 17 17 17 17 17 16 16 15 15 14 14 14 14 14 14 14 15 15 15 16 15 15 15 15
19 19 19 19 20 19 18 18 18 19 19 19 19 19 18 18 18 18 18 19 19 19 19 18 18 18 17 17 16 16 15 15 15 15 15 16 16 16 16 16 16 15 15 15
21 22 22 22 22 21 21 21 21 21 21 20 20 20 20 20 20 20 20 20 20 20 20 20 20 20 19 18 18 18 17 17 17 17 17 17 17 17 17 17 17 16 16 16
24 24 24 24 24 24 24 24 24 24 23 23 23 22 22 22 22 21 21 22 22 22 22 22 22 22 21 20 20 19 19 19 19 19 18 18 18 18 18 18 17 17 17 17
27 27 28 27 26 27 27 27 27 27 26 26 25 25 25 24 24 24 23 23 23 24 24 24 24 23 23 22 22 22 22 21 21 21 20 20 20 19 19 19 19 19 19 19
30 30 31 31 30 31 31 31 31 30 29 29 28 27 27 27 26 26 26 25 25 25 26 26 26 25 25 25 24 24 24 24 23 23 22 22 21 21 21 20 20 20 20 20
32 33 34 34 33 35 35 35 34 33 32 32 31 30 30 29 29 28 28 28 28 28 28 28 28 28 28 27 27 26 26 25 25 25 24 24 23 23 22 22 22 22 22 22
Wind_Direction
214 214 212 213 216 219 222 226 234 246 253 255 257 255 254 259 257 251 251 261 266 279 297 314 330 341 348 352 355 357 358 358 357 356 354 353 352 349 346 343 337 330 322 313
206 207 206 208 213 217 220 223 233 244 249 251 255 258 255 254 250 244 246 251 259 275 296 310 325 337 346 352 356 358 359 359 359 359 359 358 356 354 352 349 346 340 332 322
199 200 204 206 209 211 216 221 231 240 248 252 257 258 254 252 243 239 241 245 254 269 288 305 321 335 346 352 357 359 359 359 360 1 0 360 359 357 355 354 351 347 341 334
191 195 198 201 204 209 215 221 231 239 244 251 249 252 255 250 240 239 239 241 248 261 280 303 322 339 347 352 356 358 359 360 1 1 1 1 1 1 359 357 356 355 351 345
187 190 193 196 200 205 212 220 229 236 240 249 253 255 255 246 240 238 236 235 242 250 269 292 317 334 344 351 355 357 359 1 1 1 1 2 2 2 2 1 1 0 358 354
183 187 191 195 200 205 211 221 231 241 245 250 254 255 248 242 239 236 233 232 239 246 260 280 307 326 340 348 352 355 358 0 2 2 3 3 4 4 4 5 5 4 1 357
181 185 189 194 199 203 210 222 238 245 248 253 252 250 242 239 235 231 231 233 238 245 254 271 299 320 334 343 347 352 356 359 1 3 4 5 5 5 6 7 7 7 5 2
177 184 188 192 197 203 214 226 235 245 254 253 250 247 241 236 232 229 231 234 238 244 250 263 290 314 329 337 343 349 354 357 0 2 4 5 7 8 8 8 9 10 9 7
175 184 189 196 203 211 220 231 238 243 246 247 249 246 243 238 232 230 231 234 237 241 246 260 282 306 323 332 339 346 351 355 358 1 3 5 7 9 10 10 10 11 10 10
173 182 190 196 206 216 226 234 238 238 243 243 245 247 244 239 234 233 234 235 237 239 247 261 278 298 314 326 336 343 348 353 357 360 2 5 8 9 10 10 11 12 12 12
176 186 197 207 219 227 232 237 244 244 243 246 246 249 245 242 238 236 236 237 236 240 248 259 272 288 304 318 330 339 345 351 355 358 1 3 6 8 8 9 10 11 12 13
184 193 206 217 227 236 238 243 247 249 252 251 251 249 246 244 240 236 237 238 238 241 248 256 266 280 294 307 321 332 341 347 352 355 358 1 4 6 7 8 9 10 11 13
200 206 215 228 238 243 247 250 253 254 256 256 255 253 249 247 241 239 239 239 239 242 247 254 263 273 285 298 312 324 334 341 347 351 355 358 1 4 5 6 7 9 11 12
216 217 221 231 245 250 255 259 260 260 259 259 256 255 252 249 243 240 241 240 240 243 246 252 260 269 278 290 303 316 326 334 340 346 350 353 357 0 2 3 5 7 9 11
233 233 241 249 254 259 264 262 260 263 263 261 258 257 254 252 248 244 243 243 243 244 246 250 258 266 274 284 295 307 317 325 332 339 344 348 351 355 357 360 2 4 6 7
257 253 254 257 262 266 268 268 264 263 263 263 263 259 254 254 252 248 245 244 244 245 247 250 255 263 271 279 288 298 308 317 325 331 337 341 346 349 352 356 358 1 3 4
264 264 263 264 267 270 271 269 266 264 262 263 264 260 255 255 253 250 246 245 245 246 246 249 255 261 267 275 283 291 300 309 316 323 329 333 338 343 346 349 352 355 357 359
269 268 268 268 268 271 272 266 265 264 262 263 263 260 256 255 253 250 247 247 247 247 247 249 254 259 265 272 279 286 293 301 308 315 321 326 330 334 338 342 345 348 350 352
272 271 270 270 270 271 269 267 264 263 263 262 263 260 257 256 254 250 249 250 249 248 248 250 254 258 264 270 276 282 287 294 301 308 314 318 323 327 331 334 338 340 343 345
272 271 271 271 270 270 268 266 263 263 264 262 262 260 258 256 255 251 250 251 250 250 250 252 254 258 263 268 273 277 282 288 294 300 307 311 315 320 324 326 329 333 335 337
270 270 271 271 271 270 269 267 264 263 264 262 261 260 258 256 254 252 251 251 251 251 252 254 255 258 262 266 270 274 277 283 289 295 300 304 308 313 317 320 322 325 327 329
270 269 269 269 270 271 269 266 264 263 263 263 263 262 260 259 257 255 255 253 252 253 254 255 256 258 261 265 269 272 275 279 285 290 295 299 302 306 310 313 315 317 319 321
269 268 267 267 269 269 268 266 264 263 262 262 262 263 263 261 260 258 257 256 254 254 255 256 257 259 261 264 267 270 273 277 282 286 290 294 297 299 302 305 308 310 312 314
270 268 266 266 267 266 265 264 264 263 261 261 262 263 263 263 261 260 259 258 256 256 256 257 258 260 261 263 265 268 272 276 279 282 286 289 291 294 296 298 301 305 306 308
271 270 268 266 265 264 263 262 262 261 260 260 261 261 262 262 261 260 259 259 258 258 257 258 258 260 262 263 265 268 271 274 277 279 282 285 288 290 291 294 297 300 302 304
271 270 268 265 262 261 261 262 263 262 261 261 261 261 261 261 260 259 259 259 259 259 259 259 259 260 262 264 266 268 270 273 275 277 279 282 284 286 288 290 293 295 298 300
Height
5825 5830 5835 5839 5842 5845 5847 5850 5852 5853 5853 5854 5854 5855 5855 5855 5855 5855 5855 5855 5855 5855 5854 5853 5851 5849 5847 5845 5842 5839 5835 5832 5828 5824 5819 5815 5811 5806 5802 5798 5794 5791 5787 5785
5824 5828 5832 5835 5839 5842 5845 5847 5849 5850 5851 5852 5852 5853 5853 5853 5853 5853 5854 5854 5854 5853 5853 5852 5850 5848 5846 5844 5841 5838 5835 5831 5827 5823 5818 5814 5809 5805 5801 5796 5792 5788 5785 5782
5822 5827 5830 5833 5836 5840 5842 5845 5847 5848 5849 5849 5850 5851 5851 5851 5851 5852 5852 5852 5852 5852 5852 5851 5849 5848 5846 5843 5841 5837 5834 5830 5826 5822 5818 5813 5809 5804 5800 5795 5791 5786 5782 5779
5820 5824 5828 5831 5834 5838 5840 5842 5844 5846 5847 5847 5849 5849 5849 5849 5850 5850 5851 5851 5851 5851 5850 5849 5848 5847 5845 5843 5840 5837 5834 5830 5826 5821 5817 5813 5808 5803 5799 5794 5789 5785 5781 5778
5819 5823 5826 5830 5833 5836 5838 5840 5842 5843 5844 5846 5846 5847 5848 5847 5848 5849 5849 5849 5850 5850 5849 5848 5847 5846 5844 5842 5839 5836 5833 5829 5825 5821 5817 5812 5808 5803 5798 5793 5789 5784 5780 5777
5819 5822 5825 5828 5831 5834 5837 5839 5840 5841 5843 5844 5844 5845 5846 5846 5847 5847 5848 5848 5848 5848 5848 5847 5846 5845 5843 5841 5839 5836 5833 5829 5825 5821 5816 5812 5807 5802 5798 5793 5788 5784 5780 5776
5819 5822 5825 5828 5831 5833 5836 5838 5840 5841 5841 5842 5842 5843 5844 5844 5845 5845 5846 5846 5847 5847 5846 5846 5845 5844 5842 5840 5838 5835 5832 5829 5825 5820 5816 5812 5807 5802 5798 5793 5788 5784 5780 5776
5820 5823 5825 5828 5830 5832 5834 5837 5839 5840 5840 5841 5840 5841 5842 5842 5842 5843 5844 5845 5845 5845 5845 5844 5844 5843 5841 5839 5837 5834 5831 5828 5824 5820 5816 5812 5807 5802 5798 5793 5789 5784 5780 5776
5821 5824 5826 5827 5830 5832 5833 5834 5836 5838 5838 5839 5839 5839 5840 5840 5840 5841 5842 5843 5843 5843 5843 5843 5842 5841 5840 5838 5836 5834 5831 5828 5824 5820 5816 5812 5807 5803 5798 5794 5789 5785 5781 5777
5821 5824 5826 5827 5829 5831 5832 5833 5834 5835 5836 5837 5838 5837 5838 5838 5838 5839 5840 5841 5841 5842 5841 5841 5840 5840 5838 5837 5835 5833 5830 5827 5824 5820 5816 5812 5808 5803 5799 5794 5790 5786 5781 5777
5822 5824 5826 5827 5828 5829 5831 5832 5832 5833 5834 5835 5836 5838 5835 5836 5836 5837 5838 5839 5839 5840 5839 5839 5839 5838 5837 5835 5834 5832 5829 5826 5823 5820 5816 5812 5808 5804 5799 5795 5791 5786 5782 5778
5822 5824 5825 5826 5827 5828 5829 5830 5831 5832 5832 5832 5833 5836 5833 5833 5834 5834 5835 5836 5837 5837 5837 5837 5837 5836 5835 5834 5832 5830 5828 5825 5822 5819 5816 5812 5808 5804 5800 5796 5791 5787 5783 5779
5822 5824 5825 5826 5828 5828 5827 5828 5828 5829 5829 5829 5830 5833 5830 5830 5831 5832 5833 5833 5834 5835 5835 5835 5834 5834 5833 5832 5831 5829 5827 5824 5822 5819 5815 5812 5808 5804 5800 5796 5792 5788 5784 5780
5822 5823 5825 5826 5825 5825 5825 5825 5825 5826 5826 5827 5828 5828 5828 5827 5828 5829 5830 5831 5831 5832 5832 5832 5832 5832 5831 5830 5829 5827 5825 5823 5820 5818 5815 5811 5808 5804 5800 5797 5793 5789 5785 5781
5821 5822 5822 5822 5822 5823 5823 5823 5823 5823 5823 5824 5824 5824 5825 5824 5825 5826 5827 5827 5828 5829 5829 5830 5830 5829 5829 5828 5827 5825 5824 5821 5819 5816 5814 5811 5807 5804 5800 5797 5793 5789 5785 5782
5819 5820 5820 5820 5820 5820 5820 5820 5820 5820 5820 5820 5820 5821 5821 5821 5821 5822 5823 5824 5825 5825 5826 5827 5827 5826 5826 5825 5824 5823 5821 5820 5817 5815 5812 5809 5806 5803 5800 5796 5793 5789 5786 5782
5817 5817 5818 5818 5817 5817 5817 5817 5816 5816 5816 5817 5817 5818 5817 5817 5818 5819 5819 5820 5821 5822 5823 5823 5823 5823 5823 5822 5821 5820 5819 5817 5815 5813 5811 5808 5805 5802 5799 5796 5793 5789 5786 5783
5814 5814 5814 5814 5814 5813 5816 5813 5812 5812 5812 5812 5813 5813 5813 5813 5814 5814 5815 5816 5817 5818 5819 5819 5820 5820 5819 5819 5818 5817 5816 5814 5813 5811 5808 5806 5803 5801 5798 5795 5792 5788 5785 5782
5811 5810 5810 5810 5809 5809 5810 5808 5808 5808 5808 5808 5808 5808 5809 5809 5810 5810 5811 5812 5813 5814 5814 5815 5816 5816 5816 5815 5815 5814 5813 5811 5810 5808 5806 5804 5801 5799 5796 5793 5790 5787 5784 5781
5806 5806 5806 5805 5804 5805 5806 5804 5803 5804 5804 5804 5803 5804 5804 5805 5806 5807 5807 5807 5808 5809 5810 5810 5811 5811 5811 5811 5810 5810 5809 5808 5806 5805 5803 5801 5798 5796 5793 5791 5788 5785 5783 5780
5801 5800 5800 5800 5799 5799 5800 5799 5799 5800 5800 5799 5798 5799 5799 5800 5801 5802 5802 5802 5803 5804 5805 5805 5806 5806 5806 5806 5806 5805 5804 5803 5802 5801 5799 5797 5795 5793 5790 5788 5785 5783 5780 5778
5795 5795 5795 5794 5794 5796 5794 5793 5794 5794 5793 5793 5793 5794 5794 5794 5795 5795 5796 5797 5797 5798 5799 5800 5800 5801 5801 5801 5800 5800 5799 5799 5798 5796 5795 5793 5791 5789 5787 5785 5782 5780 5778 5775
5788 5788 5787 5788 5789 5787 5787 5786 5786 5786 5787 5787 5787 5788 5788 5789 5789 5790 5790 5791 5791 5792 5793 5793 5794 5794 5795 5795 5795 5794 5794 5793 5792 5791 5790 5788 5786 5785 5783 5780 5778 5776 5774 5772
5781 5780 5779 5780 5780 5779 5778 5778 5778 5778 5779 5779 5780 5781 5781 5782 5783 5783 5784 5784 5785 5785 5786 5787 5787 5788 5788 5788 5788 5788 5788 5787 5786 5785 5784 5783 5781 5779 5778 5776 5774 5772 5769 5767
5772 5771 5770 5771 5772 5770 5769 5769 5769 5770 5770 5771 5772 5773 5773 5774 5775 5776 5776 5777 5777 5778 5778 5779 5780 5781 5781 5781 5781 5781 5781 5780 5779 5778 5777 5776 5775 5773 5772 5770 5768 5767 5765 5762
5761 5760 5759 5760 5761 5759 5760 5759 5760 5760 5761 5761 5762 5764 5764 5765 5766 5767 5768 5768 5769 5770 5770 5771 5772 5772 5773 5773 5773 5773 5773 5773 5772 5771 5770 5769 5768 5767 5765 5764 5762 5760 5759 5757